This demonstration page uses our WeatherBlox Daily Observations layout. Learn more.

Left ArrowRight Arrow

34.02893, -84.19858

Hourly Observations for April 25, 2019

Temp ( °F °C ) Dew Point ( °F °C ) Humidity (%) Winds ( mph kmh ) Pressure ( in mb ) Visibility ( mi km ) Precip ( " mm )
12:53 am 00:53 Clear 64 17.8 52 11.1 65 65 SW 7 11 29.92 1013 10 16 0.00 0.00
1:53 am 01:53 Clear 65 18.3 53 11.7 66 66 SW 10 17 29.91 1013 10 16 0.00 0.00
2:53 am 02:53 Clear 63 17.2 55 12.8 76 76 SW 8 13 29.91 1013 10 16 0.00 0.00
3:53 am 03:53 Clear 62 16.7 55 12.8 78 78 SW 8 13 29.90 1012 10 16 0.00 0.00
4:53 am 04:53 Clear 61 16.1 56 13.3 84 84 SW 7 11 29.90 1013 10 16 0.00 0.00
5:53 am 05:53 Clear 60 15.6 56 13.3 86 86 SW 5 7 29.91 1013 10 16 0.00 0.00
6:53 am 06:53 Clear 60 15.6 56 13.3 86 86 SW 8 13 29.91 1013 10 16 0.00 0.00
7:53 am 07:53 Sunny 62 16.7 58 14.4 86 86 SSW 5 7 29.92 1013 10 16 0.00 0.00
8:53 am 08:53 Sunny 63 17.2 58 14.4 84 84 SW 5 7 29.93 1014 10 16 0.00 0.00
9:53 am 09:53 Sunny 66 18.9 60 15.6 81 81 SSW 8 13 29.94 1014 10 16 0.00 0.00
10:53 am 10:53 Sunny 70 21.1 61 16.1 73 73 SSW 8 13 29.92 1013 10 16 0.00 0.00
11:53 am 11:53 Sunny 72 22.2 60 15.6 66 66 VRB 6 9 29.90 1013 10 16 0.00 0.00
12:53 pm 12:53 Sunny 72 22.2 60 15.6 66 66 S 7 11 29.89 1012 10 16 0.00 0.00
1:53 pm 13:53 Mostly Sunny 73 22.8 58 14.4 59 59 S 10 17 29.87 1011 10 16 0.00 0.00
2:53 pm 14:53 Partly Cloudy 72 22.2 57 13.9 59 59 SSW 16 26 29.88 1012 10 16 0.00 0.00
3:53 pm 15:53 Sunny 72 22.2 58 14.4 61 61 SSW 13 20 29.87 1012 10 16 0.00 0.00
4:53 pm 16:53 Mostly Cloudy 73 22.8 58 14.4 59 59 SSW 10 17 29.86 1011 10 16 0.00 0.00
5:53 pm 17:53 Mostly Sunny 72 22.2 57 13.9 59 59 S 13 20 29.85 1011 10 16 0.00 0.00
6:53 pm 18:53 Partly Cloudy 71 21.7 57 13.9 61 61 S 8 13 29.83 1010 10 16 0.00 0.00
7:53 pm 19:53 Mostly Sunny 70 21.1 58 14.4 66 66 S 7 11 29.83 1010 10 16 0.00 0.00
8:53 pm 20:53 Cloudy with Light Rain 60 15.6 58 14.4 93 93 SE 5 7 29.84 1011 10 16 0.05 1.27
9:53 pm 21:53 Clear 60 15.6 59 15 96 96 SSE 5 7 29.85 1011 10 16 0.00 0.03
10:53 pm 22:53 Partly Cloudy 61 16.1 59 15 93 93 Calm 29.83 1010 10 16 0.00 0.00
11:53 pm 23:53 Cloudy with Light Rain 61 16.1 58 14.4 90 90 S 6 9 29.80 1009 10 16 0.00 0.03

Powered by AerisWeather